[[{"header":{"parameterUnit":"m.s-1","parameterCategory":1,"la1":30.2991,"la2":30.254,"lo1":-89.0895,"lo2":-89.0444,"dy":0.0017,"dx":0.0017,"nx":28,"ny":28,"refTime":"2024-08-19T09:00:00:Z","depth":0,"parameterNumber":2,"parameterNumberName":"U-component_of_WINDS"},"data":[0,0,0,0,0,0,0,0,0,0,0,0,0,0,0,0,0,0,0,0,0,0,0,0,0,0,0,0,0,0,0,0,0,0,0,0,0,0,0,0,0,0,0,0,0,0,0,0,0,0,0,0,0,0,0,0,0,0,-0.8638,-0.8638,0,-0.8643,-0.8644,-0.8644,-0.8537,-0.8534,-0.8531,-0.8528,-0.8541,-0.8544,-0.8547,0,0,0,0,0,0,0,0,0,0,0,0,0,-0.8539,-0.8541,-0.8638,-0.8638,-0.8638,-0.8643,-0.8644,-0.8644,-0.8537,-0.8534,-0.853,-0.8527,-0.854,-0.8544,-0.8547,0,0,0,0,0,0,0,0,0,0,0,0,0,-0.8567,-0.8542,-0.8638,-0.8585,-0.858,-0.8643,-0.8644,-0.8644,-0.8538,-0.8534,-0.8529,-0.8525,-0.8539,-0.8543,-0.8548,-0.8664,0,0,-0.8562,-0.8564,0,0,0,0,0,0,0,0,-0.8566,-0.8571,-0.8593,-0.8589,-0.8584,-0.8585,-0.8613,-0.8651,-0.8539,-0.8554,-0.8528,-0.8523,-0.856,-0.8562,-0.8573,-0.8664,-0.8665,-0.8562,-0.8565,-0.8567,-0.8568,0,0,0,0,0,0,0,-0.8564,-0.857,-0.864,-0.8593,-0.8588,-0.8563,-0.8562,-0.862,-0.8582,-0.8553,-0.8545,-0.8547,-0.8556,-0.8569,-0.8573,-0.8665,-0.8562,-0.8566,-0.8569,-0.8571,-0.885,-0.8854,0,0,0,0,0,0,-0.8568,-0.8569,-0.864,-0.864,-0.8563,-0.8568,-0.8567,-0.8589,-0.8581,-0.8575,-0.855,-0.8542,-0.8563,-0.8568,-0.8573,-0.8708,-0.8567,-0.8571,-0.8574,-0.8845,-0.8851,-0.8856,0,0,0,0,0,0,-0.8566,-0.8575,-0.864,-0.8602,-0.8609,-0.8574,-0.86,-0.8591,-0.8604,-0.8579,-0.8572,-0.857,-0.856,-0.8566,-0.8641,-0.8707,-0.8573,-0.8578,-0.884,-0.8847,-0.8854,-0.8979,0,0,0,0,0,0,-0.8564,-0.8575,-0.8618,-0.8604,-0.8611,-0.8707,-0.8604,-0.8595,-0.8611,-0.86,-0.8596,-0.8591,-0.8557,-0.8635,-0.8646,-0.8711,-0.8581,-0.8834,-0.8843,-0.8851,-0.8969,-0.8989,-0.9007,0,0,0,0,0,-0.8561,-0.8655,-0.8621,-0.863,-0.8664,-0.8711,-0.8715,-0.8673,-0.8617,-0.866,-0.8644,-0.8591,-0.8697,-0.8643,-0.8655,-0.8722,-0.883,-0.884,-0.8851,-0.896,-0.8985,-0.9006,0,0,0,0,0,0,-0.8681,-0.8652,-0.8614,-0.8706,-0.8712,-0.8693,-0.8747,-0.8701,-0.8724,-0.8713,-0.866,-0.866,-0.8744,-0.874,-0.8681,-0.8833,-0.8754,-0.8767,-0.8833,-0.8857,-0.8875,-0.8876,-0.8585,0,0,0,0,0,-0.8718,-0.8757,-0.873,-0.8814,-0.8818,-0.8782,-0.8801,-0.8767,-0.8772,-0.8774,-0.8763,-0.8771,-0.8806,-0.8831,-0.8861,-0.8966,-0.8964,-0.9018,-0.9037,-0.9052,-0.9066,-0.9121,-0.9145,-0.889,-0.889,-0.889,0,0,-0.8795,-0.8784,-0.8813,-0.8838,-0.8838,-0.8881,-0.8785,-0.8835,-0.8867,-0.8783,-0.8852,-0.8844,-0.8849,-0.894,-0.8979,-0.8939,-0.9135,-0.9066,-0.9079,-0.9083,-0.9134,-0.9158,-0.918,-0.8898,-0.8896,-0.8895,0,0,-0.8959,-0.8954,-0.9023,-0.9024,-0.9024,-0.8998,-0.9015,-0.9002,-0.8993,-0.9061,-0.8998,-0.9036,-0.9097,-0.9103,-0.9115,-0.9277,-0.9229,-0.9288,-0.9389,-0.9443,-0.9463,-0.9481,-0.954,-0.9562,-0.93,-0.9301,-0.9301,0,-0.9056,-0.9117,-0.9065,-0.9119,-0.9132,-0.9053,-0.9123,-0.9128,-0.9139,-0.9151,-0.9104,-0.9178,-0.9176,-0.9267,-0.9306,-0.9317,-0.9336,-0.929,-0.9464,-0.9481,-0.9497,-0.9553,-0.9575,-0.9308,-0.9307,-0.9306,-0.9306,0,-0.9237,-0.928,-0.9336,-0.9346,-0.9365,-0.9427,-0.9385,-0.9411,-0.9375,-0.9355,-0.9425,-0.9419,-0.9447,-0.9465,-0.9431,-0.9551,-0.9526,-0.9473,-0.9393,-0.9529,-0.9581,-0.9602,-0.9318,-0.9316,-0.9314,-0.9312,0,0,-0.9482,-0.9458,-0.948,-0.9483,-0.9475,-0.9509,-0.9566,-0.9591,-0.9615,-0.9624,-0.9673,-0.9724,-0.9674,-0.9687,-0.9652,-0.97,-0.983,-0.964,-0.964,-0.9678,-0.9962,-1.0004,-1.003,-0.9796,-0.98,-0.9803,-0.9962,0,-0.9642,-0.9738,-0.9691,-0.9794,-0.9834,-0.9757,-0.9808,-0.981,-0.9792,-0.9823,-0.9804,-0.9842,-0.9772,-0.9779,-0.9822,-0.9805,-0.9887,-0.9792,-0.9843,-0.9846,-0.9848,-1.0057,-1.0102,-1.0253,-0.9982,-0.9985,-0.9988,0,-0.9843,-0.9858,-0.9964,-0.9947,-0.9962,-1.0008,-1.0026,-1.0056,-1.0057,-1.004,-1.0052,-1.0006,-1.0063,-0.998,-1.0059,-0.9996,-1.0013,-1.0007,-1.0012,-1.0018,-0.9928,-1.0071,-1.03,-1.0324,-1.0019,-1.0017,-1.0014,0,-1.0013,-1.0059,-1.0128,-1.0133,-1.0115,-1.0149,-1.0144,-1.0139,-1.0156,-1.0171,-1.0182,-1.0205,-1.0219,-1.0238,-1.02,-1.0143,-1.0284,-1.0198,-1.0274,-1.0275,-1.031,-1.0309,-1.0548,-1.0317,-1.0316,-1.0316,-1.0316,0,-1.0199,-1.0267,-1.0204,-1.0247,-1.0321,-1.0266,-1.0342,-1.0328,-1.0324,-1.0364,-1.0299,-1.0338,-1.0283,-1.0318,-1.0288,-1.0358,-1.0364,-1.0353,-1.0345,-1.0361,-1.0363,-1.0374,-1.0364,-1.0322,-1.0321,-1.032,-1.0319,0,-1.0403,-1.0363,-1.0434,-1.0409,-1.0404,-1.0461,-1.044,-1.048,-1.0455,-1.0506,-1.0515,-1.0478,-1.0514,-1.0476,-1.0511,-1.0491,-1.0585,-1.0561,-1.0585,-1.0579,-1.0658,-1.0652,-1.0915,-1.0947,-1.0693,-1.0696,-1.0698,0,-1.0526,-1.0577,-1.0556,-1.0577,-1.0574,-1.0609,-1.0625,-1.0572,-1.0591,-1.0593,-1.0633,-1.0663,-1.0685,-1.0747,-1.0724,-1.075,-1.0727,-1.0817,-1.0731,-1.0745,-1.0731,-1.0729,-1.0735,-1.0836,-1.0839,-1.0842,-1.0843,0,-1.0749,-1.0726,-1.075,-1.0768,-1.0788,-1.0799,-1.0806,-1.0827,-1.0772,-1.0797,-1.0832,-1.0849,-1.0882,-1.0914,-1.0932,-1.0928,-1.0878,-1.087,-1.0889,-1.0908,-1.0921,-1.0916,-1.0636,-1.0865,-1.0863,-1.0862,-1.086,-1.0859,-1.0918,-1.0959,-1.095,-1.0979,-1.0978,-1.0985,-1.102,-1.0998,-1.1026,-1.1047,-1.1014,-1.1058,-1.1055,-1.1074,-1.1075,-1.111,-1.1072,-1.1099,-1.1107,-1.1115,-1.1128,-1.0912,-1.1113,-1.1112,-1.1111,-1.1111,-1.111,0,-1.114,-1.1129,-1.1156,-1.1166,-1.1189,-1.1134,-1.1138,-1.1162,-1.1201,-1.1201,-1.1222,-1.1262,-1.1291,-1.1269,-1.1294,-1.1326,-1.1303,-1.1334,-1.1333,-1.1333,-1.1159,-1.1141,-1.1352,-1.1352,-1.1352,-1.1352,-1.1352,-1.1352,-1.1258,-1.1324,-1.1299,-1.1364,-1.1353,-1.1394,-1.1401,-1.1407,-1.1407,-1.1453,-1.1476,-1.146,-1.1451,-1.1474,-1.1499,-1.1491,-1.1505,-1.1545,-1.153,-1.1369,-1.1345,-1.1323,-1.1305,-1.1547,-1.1547,-1.17,-1.1702,-1.1703]},{"header":{"parameterUnit":"m.s-1","parameterCategory":1,"la1":30.2991,"la2":30.254,"lo1":-89.0895,"lo2":-89.0444,"dy":0.0017,"dx":0.0017,"nx":28,"ny":28,"refTime":"2024-08-19T09:00:00:Z","depth":0,"parameterNumber":3,"parameterNumberName":"V-component_of_WINDS"},"data":[0,0,0,0,0,0,0,0,0,0,0,0,0,0,0,0,0,0,0,0,0,0,0,0,0,0,0,0,0,0,0,0,0,0,0,0,0,0,0,0,0,0,0,0,0,0,0,0,0,0,0,0,0,0,0,0,0,0,-3.6991,-3.6992,0,-3.7043,-3.7044,-3.7045,-3.6989,-3.6987,-3.6985,-3.6983,-3.7033,-3.7036,-3.7039,0,0,0,0,0,0,0,0,0,0,0,0,0,-3.6839,-3.6843,-3.6991,-3.6992,-3.6993,-3.7043,-3.7044,-3.7045,-3.6989,-3.6987,-3.6984,-3.6982,-3.7031,-3.7035,-3.7039,0,0,0,0,0,0,0,0,0,0,0,0,0,-3.69,-3.6844,-3.6991,-3.6971,-3.697,-3.7043,-3.7044,-3.7045,-3.699,-3.6987,-3.6983,-3.698,-3.703,-3.7035,-3.704,-3.7135,0,0,-3.7055,-3.7057,0,0,0,0,0,0,0,0,-3.6896,-3.6905,-3.6973,-3.6973,-3.6971,-3.7006,-3.7009,-3.7075,-3.6991,-3.6982,-3.6982,-3.6979,-3.7026,-3.7031,-3.7048,-3.7137,-3.7139,-3.7056,-3.7059,-3.7061,-3.7062,0,0,0,0,0,0,0,-3.6892,-3.6903,-3.7012,-3.6974,-3.6973,-3.6958,-3.6963,-3.7021,-3.7021,-3.6983,-3.6979,-3.6986,-3.7025,-3.7043,-3.7049,-3.714,-3.7055,-3.706,-3.7063,-3.7065,-3.7307,-3.731,0,0,0,0,0,0,-3.6891,-3.69,-3.701,-3.7013,-3.6925,-3.6963,-3.6969,-3.6998,-3.7021,-3.7021,-3.6988,-3.6983,-3.7036,-3.7043,-3.705,-3.7161,-3.7061,-3.7065,-3.7068,-3.7303,-3.7307,-3.7311,0,0,0,0,0,0,-3.6888,-3.6901,-3.7008,-3.6956,-3.6968,-3.6969,-3.7003,-3.7001,-3.7019,-3.7025,-3.7024,-3.7007,-3.7034,-3.7043,-3.7114,-3.7162,-3.7068,-3.7072,-3.7299,-3.7304,-3.7309,-3.7384,0,0,0,0,0,0,-3.6884,-3.6901,-3.6938,-3.6957,-3.6971,-3.7072,-3.7006,-3.7004,-3.7028,-3.7022,-3.7043,-3.7043,-3.7032,-3.7107,-3.7119,-3.7167,-3.7076,-3.7295,-3.7301,-3.7308,-3.7377,-3.7391,-3.7403,0,0,0,0,0,-3.6879,-3.6956,-3.694,-3.6954,-3.7018,-3.7075,-3.7083,-3.707,-3.7033,-3.7069,-3.7072,-3.7042,-3.7155,-3.7114,-3.7127,-3.7178,-3.7292,-3.73,-3.7307,-3.7372,-3.7389,-3.7403,0,0,0,0,0,0,-3.6942,-3.6959,-3.694,-3.7027,-3.705,-3.7066,-3.7111,-3.7089,-3.7122,-3.7114,-3.7096,-3.7101,-3.7176,-3.7184,-3.7138,-3.727,-3.7217,-3.7228,-3.7261,-3.7278,-3.729,-3.7286,-3.708,0,0,0,0,0,-3.6966,-3.7013,-3.7024,-3.71,-3.7112,-3.711,-3.7135,-3.7123,-3.7145,-3.7154,-3.7163,-3.7185,-3.7225,-3.7252,-3.7289,-3.7379,-3.7381,-3.742,-3.7433,-3.7443,-3.7452,-3.7498,-3.7515,-3.7336,-3.7336,-3.7336,0,0,-3.7016,-3.7031,-3.7062,-3.7113,-3.7129,-3.7176,-3.7119,-3.7171,-3.7205,-3.7162,-3.7229,-3.7236,-3.7259,-3.7339,-3.7375,-3.7348,-3.7502,-3.7453,-3.7461,-3.7465,-3.7508,-3.7524,-3.7539,-3.7342,-3.7341,-3.734,0,0,-3.7132,-3.7149,-3.7212,-3.723,-3.7256,-3.7254,-3.7269,-3.7288,-3.7291,-3.7358,-3.7326,-3.7366,-3.7436,-3.7454,-3.7472,-3.7593,-3.7565,-3.7605,-3.7672,-3.7717,-3.7731,-3.7743,-3.7784,-3.78,-3.7615,-3.7615,-3.7615,0,-3.719,-3.7261,-3.7248,-3.7302,-3.7325,-3.7289,-3.7352,-3.737,-3.7406,-3.7422,-3.7392,-3.7478,-3.7492,-3.7574,-3.7603,-3.762,-3.7635,-3.7602,-3.773,-3.7742,-3.7754,-3.7793,-3.7809,-3.7619,-3.7619,-3.7618,-3.7618,0,-3.7331,-3.7381,-3.7429,-3.7466,-3.7494,-3.7553,-3.7546,-3.7576,-3.7561,-3.7562,-3.7629,-3.7644,-3.7683,-3.7702,-3.7688,-3.7782,-3.7765,-3.7733,-3.7679,-3.7775,-3.7812,-3.7827,-3.7626,-3.7624,-3.7623,-3.7622,0,0,-3.7487,-3.7516,-3.7533,-3.7549,-3.7575,-3.7612,-3.7668,-3.7707,-3.7732,-3.7759,-3.7804,-3.7864,-3.7834,-3.7855,-3.7843,-3.7882,-3.7975,-3.7845,-3.7845,-3.7867,-3.8077,-3.8099,-3.8117,-3.7957,-3.796,-3.7962,-3.8074,0,-3.7602,-3.7701,-3.7689,-3.7783,-3.7827,-3.7794,-3.7842,-3.7862,-3.7864,-3.7901,-3.7902,-3.7944,-3.7903,-3.7915,-3.7953,-3.7955,-3.8016,-3.7947,-3.7997,-3.7999,-3.7991,-3.8136,-3.816,-3.8265,-3.8088,-3.8091,-3.8092,0,-3.7748,-3.778,-3.7879,-3.7896,-3.7914,-3.7959,-3.7993,-3.8029,-3.805,-3.8049,-3.8072,-3.8052,-3.8107,-3.8053,-3.8127,-3.808,-3.81,-3.8104,-3.8108,-3.8111,-3.8051,-3.8141,-3.8298,-3.8313,-3.8115,-3.8113,-3.8112,0,-3.785,-3.7918,-3.7985,-3.8,-3.8022,-3.8054,-3.8064,-3.8083,-3.8107,-3.8136,-3.8151,-3.8186,-3.8205,-3.8232,-3.8221,-3.8184,-3.8297,-3.8243,-3.8295,-3.8295,-3.8319,-3.8318,-3.848,-3.8335,-3.8335,-3.8335,-3.8334,0,-3.7978,-3.8039,-3.8031,-3.8072,-3.8139,-3.8125,-3.8191,-3.8197,-3.8213,-3.8254,-3.8227,-3.8265,-3.825,-3.8287,-3.8279,-3.834,-3.8349,-3.8348,-3.8345,-3.835,-3.835,-3.8361,-3.8353,-3.8339,-3.8338,-3.8337,-3.8336,0,-3.8102,-3.81,-3.817,-3.8186,-3.8191,-3.824,-3.8252,-3.829,-3.829,-3.8341,-3.8352,-3.8351,-3.8393,-3.8386,-3.8432,-3.8427,-3.8503,-3.8492,-3.8496,-3.8493,-3.8545,-3.8539,-3.8719,-3.8741,-3.8584,-3.8585,-3.8586,0,-3.8183,-3.8229,-3.825,-3.8276,-3.8289,-3.8331,-3.8355,-3.8343,-3.8368,-3.8396,-3.843,-3.847,-3.85,-3.8569,-3.8571,-3.8606,-3.8594,-3.8655,-3.8599,-3.8602,-3.8593,-3.8589,-3.8593,-3.8665,-3.8667,-3.8668,-3.867,0,-3.8327,-3.8323,-3.8359,-3.8395,-3.8425,-3.8452,-3.8477,-3.8499,-3.8489,-3.8519,-3.8562,-3.8586,-3.8633,-3.8672,-3.8704,-3.8713,-3.8689,-3.8687,-3.8701,-3.8705,-3.8705,-3.8704,-3.8524,-3.8683,-3.8681,-3.868,-3.868,-3.8679,-3.843,-3.8469,-3.849,-3.8531,-3.8548,-3.8572,-3.8607,-3.8612,-3.8648,-3.8686,-3.8676,-3.8724,-3.8743,-3.8784,-3.8797,-3.8833,-3.881,-3.883,-3.8835,-3.884,-3.8845,-3.8701,-3.8839,-3.8838,-3.8838,-3.8838,-3.8837,0,-3.8571,-3.8582,-3.862,-3.8656,-3.8688,-3.8664,-3.8689,-3.8717,-3.876,-3.878,-3.8811,-3.886,-3.8897,-3.8903,-3.8938,-3.8965,-3.8955,-3.8975,-3.8972,-3.8974,-3.8865,-3.8848,-3.8983,-3.8982,-3.8982,-3.8982,-3.8982,-3.8982,-3.8647,-3.8711,-3.871,-3.8781,-3.8792,-3.884,-3.8856,-3.8877,-3.8893,-3.8948,-3.898,-3.8983,-3.8997,-3.9033,-3.9065,-3.9066,-3.9079,-3.9103,-3.9099,-3.8996,-3.8982,-3.8968,-3.8952,-3.9106,-3.9106,-3.9205,-3.9206,-3.9206]}]]